Home   Weather   Binningen   Past weeks
Flag for Switzerland

Past Weather in Binningen, Basel-Land, Switzerland — Yesterday and Last 2 Weeks

Now
44 °F

Sprinkles. Overcast.


Feels Like: 35 °F
Forecast: 52 / 39 °F
Wind: 22 mph from Southwest

Location: Bale-Mulhouse

Current Time: Dec 13, 2019 at 2:50:20 pm

Latest Report: Dec 13, 2019 at 1:00 pm


Visibility: 9 mi

Pressure: 29.15 "Hg

Humidity: 77%

Dew Point: 37 °F

Location of BinningenLocation

Past Weather in Binningen — Graph

°F

Binningen Temperature Yesterday

Maximum temperature yesterday: 42 °F (at 3:00 pm)
Minimum temperature yesterday: 33 °F (at 9:00 pm)
Average temperature yesterday: 38 °F

High & Low Weather Summary for the Past Weeks

 TemperatureHumidityPressure
High55 °F (Dec 8, 2:00 pm)98% (Nov 30, 11:00 pm)30.45 "Hg (Nov 30, 11:00 pm)
Low23 °F (Dec 4, 5:00 am)60% (Nov 30, 1:00 pm)28.94 "Hg (Dec 13, 7:00 am)
Average39 °F84%30.05 "Hg
* Reported Nov 28 1:00 pm — Dec 13 1:00 pm, Binningen. Weather by CustomWeather, © 2019

Note: Actual official high and low records may vary slightly from our data, if they occured in-between our weather recording intervals... More about our weather records

Binningen Weather History for the Previous 24 Hours

Scroll right to see more
 ConditionsComfort  
Time TempWeatherWind HumidityBarometerVisibility
1:00 pm
Fri, Dec 13
44 °FSprinkles. Overcast.22 mph77%29.15 "Hg9 mi
12:00 pm46 °FPartly sunny.24 mph74%29.12 "Hg19 mi
11:00 am41 °FRain showers. Overcast.22 mph84%29.12 "Hg5 mi
10:00 am45 °FOvercast.18 mph79%29.03 "Hg12 mi
9:00 am44 °FLight rain. Overcast.17 mph86%29.00 "Hg7 mi
8:00 am42 °FLight rain. Overcast.2 mph87%28.94 "Hg7 mi
7:00 am42 °FLight rain. Overcast.10 mph85%28.94 "Hg7 mi
6:00 am40 °FRain. Overcast.12 mph87%29.00 "Hg7 mi
5:00 am40 °FOvercast.10 mph81%29.06 "Hg19 mi
4:00 am38 °FOvercast.3 mph86%29.12 "Hg37 mi
3:00 am38 °FOvercast.2 mph86%29.18 "Hg34 mi
2:00 am38 °FOvercast.8 mph83%29.21 "Hg28 mi
1:00 am37 °FLight rain. Overcast.15 mph82%29.26 "Hg15 mi
12:00 am38 °FOvercast.10 mph71%29.29 "Hg19 mi
11:00 pm
Thu, Dec 12
37 °FOvercast.14 mph74%29.32 "Hg19 mi
10:00 pm36 °FOvercast.12 mph79%29.38 "Hg19 mi
9:00 pm33 °FPassing clouds.6 mph83%29.44 "Hg19 mi
8:00 pm33 °FPassing clouds.6 mph82%29.50 "Hg19 mi
7:00 pm35 °FOvercast.7 mph80%29.50 "Hg31 mi
6:00 pm34 °FPassing clouds.6 mph82%29.58 "Hg31 mi
5:00 pm36 °FPassing clouds.3 mph74%29.62 "Hg31 mi
4:00 pm41 °FPassing clouds.7 mph64%29.66 "Hg31 mi
3:00 pm42 °FScattered clouds.10 mph63%29.68 "Hg31 mi
2:00 pm40 °FOvercast.13 mph71%29.72 "Hg31 mi
Weather by CustomWeather, © 2019

See weather overview

Advertising